| time (UTC) | temp F | wind direction | speed MPH | gust MPH | rain 1hr in | rain 24hr in | rain mn in | humidity % | barometer mb |
| 20260505011358 | 64 | 358 | 0.0 | 5.0 | 0.00 | 0.00 | 0.00 | 35 | 1001.9 |
| 20260505010713 | 0 | 355 | 3.0 | 4.0 | 0.00 | 0.00 | 0.00 | ||
| 20260505005815 | 64 | 355 | 4.0 | 8.0 | 0.00 | 0.00 | 0.00 | 35 | 1002.1 |
| 20260505005135 | 0 | 353 | 0.0 | 5.0 | 0.00 | 0.00 | 0.00 | ||
| 20260505004124 | 64 | 356 | 1.0 | 4.0 | 0.00 | 0.00 | 0.00 | 35 | 1002.0 |
| 20260505003445 | 64 | 356 | 0.0 | 6.0 | 0.00 | 0.00 | 0.00 | 36 | 1002.0 |
| 20260505002805 | 64 | 355 | 2.0 | 6.0 | 0.00 | 0.00 | 0.00 | 36 | 1002.1 |
| 20260505002125 | 62 | 356 | 0.0 | 9.0 | 0.00 | 0.00 | 0.00 | 40 | 1002.0 |
| 20260505001446 | 0 | 358 | 6.0 | 4.0 | 0.00 | 0.00 | 0.00 | ||
| 20260505000549 | 60 | 356 | 5.0 | 10.0 | 0.00 | 0.00 | 0.00 | 44 | 1002.2 |
| 20260504235909 | 62 | 355 | 6.0 | 10.0 | 0.00 | 0.00 | 0.00 | 39 | 1002.2 |
| 20260504235229 | 62 | 356 | 6.0 | 11.0 | 0.00 | 0.00 | 0.00 | 40 | 1002.3 |
| 20260504234550 | 61 | 354 | 8.0 | 11.0 | 0.00 | 0.00 | 0.00 | 42 | 1002.4 |
| 20260504233909 | 60 | 355 | 5.0 | 10.0 | 0.00 | 0.00 | 0.00 | 46 | 1002.5 |
| 20260504233230 | 61 | 0 | 7.0 | 7.0 | 0.00 | 0.00 | 0.00 | 43 | 1002.4 |
| 20260504232439 | 63 | 354 | 8.0 | 11.0 | 0.00 | 0.00 | 0.00 | 38 | 1002.4 |
| 20260504231800 | 61 | 356 | 8.0 | 11.0 | 0.00 | 0.00 | 0.00 | 41 | 1002.4 |
| 20260504231119 | 62 | 355 | 8.0 | 12.0 | 0.00 | 0.00 | 0.00 | 40 | 1002.4 |
| 20260504230441 | 63 | 356 | 6.0 | 11.0 | 0.00 | 0.00 | 0.00 | 42 | 1002.5 |
| 20260504225800 | 63 | 357 | 7.0 | 11.0 | 0.00 | 0.00 | 0.00 | 43 | 1002.4 |
| 20260504225119 | 61 | 357 | 8.0 | 11.0 | 0.00 | 0.00 | 0.00 | 46 | 1002.5 |
| 20260504224439 | 62 | 355 | 7.0 | 11.0 | 0.00 | 0.00 | 0.00 | 44 | 1002.5 |
| 20260504223800 | 60 | 356 | 5.0 | 5.0 | 0.00 | 0.00 | 0.00 | 49 | 1002.6 |
| 20260504223010 | 61 | 356 | 4.0 | 11.0 | 0.00 | 0.00 | 0.00 | 48 | 1002.5 |
| 20260504222332 | 62 | 358 | 7.0 | 11.0 | 0.00 | 0.00 | 0.00 | 44 | 1002.3 |
| 20260504221652 | 62 | 356 | 8.0 | 11.0 | 0.00 | 0.00 | 0.00 | 45 | 1002.3 |
| 20260504221012 | 0 | 353 | 8.0 | 8.0 | 0.00 | 0.00 | 0.00 | ||
| 20260504220223 | 0 | 354 | 4.0 | 6.0 | 0.00 | 0.00 | 0.00 | ||
| 20260504215432 | 62 | 356 | 7.0 | 10.0 | 0.00 | 0.00 | 0.00 | 44 | 1002.5 |
| 20260504214752 | 0 | 354 | 6.0 | 7.0 | 0.00 | 0.00 | 0.00 | ||
| 20260504214012 | 63 | 355 | 6.0 | 10.0 | 0.00 | 0.00 | 0.00 | 40 | 1002.4 |
| 20260504213322 | 63 | 355 | 7.0 | 10.0 | 0.00 | 0.00 | 0.00 | 40 | 1002.3 |
| 20260504212643 | 0 | 355 | 3.0 | 4.0 | 0.00 | 0.00 | 0.00 | ||
| 20260504211850 | 63 | 355 | 5.0 | 10.0 | 0.00 | 0.00 | 0.00 | 39 | 1002.4 |
| 20260504211210 | 65 | 357 | 3.0 | 5.0 | 0.00 | 0.00 | 0.00 | 37 | 1002.4 |
| 20260504210422 | 64 | 355 | 4.0 | 9.0 | 0.00 | 0.00 | 0.00 | 37 | 1002.4 |
| 20260504205742 | 64 | 356 | 0.0 | 6.0 | 0.00 | 0.00 | 0.00 | 38 | 1002.4 |
| 20260504205102 | 63 | 357 | 1.0 | 8.0 | 0.00 | 0.00 | 0.00 | 40 | 1002.4 |
| 20260504204422 | 64 | 353 | 4.0 | 8.0 | 0.00 | 0.00 | 0.00 | 39 | 1002.6 |
| 20260504203742 | 64 | 355 | 0.0 | 0.0 | 0.00 | 0.00 | 0.00 | 41 | 1002.7 |
| 20260504203101 | 64 | 355 | 0.0 | 2.0 | 0.00 | 0.00 | 0.00 | 41 | 1002.8 |
| 20260504202423 | 0 | 351 | 0.0 | 7.0 | 0.00 | 0.00 | 0.00 | ||
| 20260504201631 | 64 | 355 | 0.0 | 7.0 | 0.00 | 0.00 | 0.00 | 45 | 1002.9 |
| 20260504200951 | 64 | 356 | 1.0 | 10.0 | 0.00 | 0.00 | 0.00 | 45 | 1002.9 |
| 20260504200312 | 63 | 356 | 5.0 | 9.0 | 0.00 | 0.00 | 0.00 | 42 | 1003.1 |
| 20260504195631 | 64 | 356 | 5.0 | 9.0 | 0.00 | 0.00 | 0.00 | 40 | 1003.1 |
| 20260504194953 | 64 | 354 | 4.0 | 9.0 | 0.00 | 0.00 | 0.00 | 40 | 1003.2 |
| 20260504194313 | 64 | 355 | 1.0 | 7.0 | 0.00 | 0.00 | 0.00 | 42 | 1003.2 |
| 20260504193633 | 63 | 356 | 1.0 | 10.0 | 0.00 | 0.00 | 0.00 | 44 | 1003.4 |
| 20260504192953 | 63 | 356 | 5.0 | 10.0 | 0.00 | 0.00 | 0.00 | 42 | 1003.5 |
| 20260504192312 | 62 | 356 | 7.0 | 10.0 | 0.00 | 0.00 | 0.00 | 43 | 1003.5 |
| 20260504191633 | 0 | 0 | 4.0 | 4.0 | 0.00 | 0.00 | 0.00 | ||
| 20260504190843 | 62 | 357 | 2.0 | 6.0 | 0.00 | 0.00 | 0.00 | 46 | 1003.8 |
| 20260504190201 | 63 | 357 | 2.0 | 8.0 | 0.00 | 0.00 | 0.00 | 44 | 1003.9 |
| 20260504185524 | 0 | 357 | 5.0 | 8.0 | 0.00 | 0.00 | 0.00 | ||
| 20260504184730 | 60 | 356 | 4.0 | 8.0 | 0.00 | 0.00 | 0.00 | 51 | 1004.1 |
| 20260504184055 | 60 | 356 | 5.0 | 8.0 | 0.00 | 0.00 | 0.00 | 50 | 1004.1 |
| 20260504183411 | 60 | 356 | 3.0 | 2.0 | 0.00 | 0.00 | 0.00 | 49 | 1004.2 |
| 20260504182618 | 58 | 357 | 4.0 | 8.0 | 0.00 | 0.00 | 0.00 | 50 | 1004.4 |
| 20260504181938 | 58 | 356 | 4.0 | 8.0 | 0.00 | 0.00 | 0.00 | 51 | 1004.4 |
| 20260504181258 | 60 | 357 | 0.0 | 8.0 | 0.00 | 0.00 | 0.00 | 48 | 1004.4 |
| 20260504180619 | 0 | 355 | 7.0 | 4.0 | 0.00 | 0.00 | 0.00 | ||
| 20260504175642 | 0 | 351 | 0.0 | 0.0 | 0.00 | 0.00 | 0.00 | ||
| 20260504174850 | 58 | 357 | 0.0 | 0.0 | 0.00 | 0.00 | 0.00 | 55 | 1004.8 |
| 20260504174210 | 57 | 354 | 0.0 | 7.0 | 0.00 | 0.00 | 0.00 | 57 | 1004.9 |
| 20260504173530 | 57 | 356 | 0.0 | 8.0 | 0.00 | 0.00 | 0.00 | 56 | 1005.0 |
| 20260504172849 | 57 | 355 | 5.0 | 9.0 | 0.00 | 0.00 | 0.00 | 55 | 1004.9 |
| 20260504172210 | 58 | 356 | 6.0 | 9.0 | 0.00 | 0.00 | 0.00 | 52 | 1004.9 |
| 20260504171530 | 58 | 357 | 4.0 | 8.0 | 0.00 | 0.00 | 0.00 | 54 | 1004.9 |
| 20260504170850 | 58 | 355 | 5.0 | 8.0 | 0.00 | 0.00 | 0.00 | 54 | 1005.1 |
| 20260504170211 | 57 | 357 | 4.0 | 8.0 | 0.00 | 0.00 | 0.00 | 58 | 1005.1 |
| 20260504160140 | 57 | 355 | 7.0 | 12.0 | 0.00 | 0.00 | 0.00 | 52 | 1005.7 |
| 20260504151134 | 0 | 356 | 9.0 | 10.0 | 0.00 | 0.00 | 0.00 | ||
| 20260504150340 | 60 | 354 | 7.0 | 16.0 | 0.00 | 0.00 | 0.00 | 46 | 1006.1 |
| 20260504141114 | 0 | 355 | 9.0 | 8.0 | 0.00 | 0.00 | 0.00 | ||
| 20260504140325 | 60 | 356 | 9.0 | 16.0 | 0.00 | 0.00 | 0.00 | 43 | 1005.9 |
| 20260504130802 | 59 | 353 | 11.0 | 18.0 | 0.00 | 0.00 | 0.00 | 38 | 1006.1 |
| 20260504130127 | 60 | 357 | 10.0 | 18.0 | 0.00 | 0.00 | 0.00 | 38 | 1006.2 |
| 20260504100317 | 51 | 355 | 5.0 | 10.0 | 0.00 | 0.00 | 0.00 | 47 | 1005.9 |
| 20260504081422 | 0 | 358 | 10.0 | 10.0 | 0.00 | 0.00 | 0.00 | ||
| 20260504080630 | 52 | 355 | 12.0 | 6.0 | 0.00 | 0.00 | 0.00 | 42 | 1006.7 |
| 20260504070303 | 0 | 355 | 10.0 | 9.0 | 0.00 | 0.00 | 0.00 | ||
| 20260504050553 | 0 | 353 | 8.0 | 6.0 | 0.00 | 0.00 | 0.00 | ||
| 20260504045804 | 52 | 356 | 8.0 | 21.0 | 0.00 | 0.00 | 0.00 | 50 | 1008.8 |
| 20260504045124 | 54 | 357 | 11.0 | 21.0 | 0.00 | 0.00 | 0.00 | 39 | 1008.7 |
| 20260504044443 | 55 | 355 | 12.0 | 20.0 | 0.00 | 0.00 | 0.00 | 37 | 1008.6 |
| 20260504043804 | 0 | 356 | 9.0 | 19.0 | 0.00 | 0.00 | 0.00 | ||
| 20260504043011 | 54 | 354 | 11.0 | 19.0 | 0.00 | 0.00 | 0.00 | 37 | 1008.4 |
| 20260504042331 | 54 | 357 | 10.0 | 17.0 | 0.00 | 0.00 | 0.00 | 38 | 1008.3 |
| 20260504041652 | 54 | 358 | 10.0 | 16.0 | 0.00 | 0.00 | 0.00 | 38 | 1008.3 |
| 20260504041014 | 0 | 355 | 9.0 | 10.0 | 0.00 | 0.00 | 0.00 | ||
| 20260504035726 | 54 | 355 | 10.0 | 17.0 | 0.00 | 0.00 | 0.00 | 37 | 1008.4 |
| 20260504035045 | 54 | 356 | 10.0 | 16.0 | 0.00 | 0.00 | 0.00 | 37 | 1008.4 |
| 20260504034405 | 55 | 356 | 10.0 | 16.0 | 0.00 | 0.00 | 0.00 | 37 | 1008.4 |
| 20260504033726 | 0 | 356 | 8.0 | 6.0 | 0.00 | 0.00 | 0.00 | ||
| 20260504032933 | 54 | 357 | 8.0 | 21.0 | 0.00 | 0.00 | 0.00 | 46 | 1008.6 |
| 20260504032253 | 54 | 356 | 13.0 | 23.0 | 0.00 | 0.00 | 0.00 | 44 | 1008.5 |
| 20260504031613 | 54 | 357 | 15.0 | 27.0 | 0.00 | 0.00 | 0.00 | 42 | 1008.6 |
| 20260504030932 | 54 | 354 | 15.0 | 27.0 | 0.00 | 0.00 | 0.00 | 42 | 1008.6 |
| 20260504030253 | 0 | 356 | 11.0 | 8.0 | 0.00 | 0.00 | 0.00 | ||
| 20260504025501 | 54 | 355 | 12.0 | 23.0 | 0.00 | 0.00 | 0.00 | 42 | 1008.7 |
| 20260504024821 | 54 | 356 | 14.0 | 22.0 | 0.00 | 0.00 | 0.00 | 44 | 1008.7 |
| 20260504024141 | 54 | 356 | 14.0 | 22.0 | 0.00 | 0.00 | 0.00 | 44 | 1008.8 |
| 20260504023502 | 54 | 354 | 14.0 | 23.0 | 0.00 | 0.00 | 0.00 | 45 | 1008.8 |
| 20260504022823 | 0 | 354 | 11.0 | 13.0 | 0.00 | 0.00 | 0.00 | ||
| 20260504022030 | 54 | 356 | 11.0 | 24.0 | 0.00 | 0.00 | 0.00 | 47 | 1008.8 |
| 20260504021350 | 54 | 356 | 12.0 | 25.0 | 0.00 | 0.00 | 0.00 | 47 | 1008.9 |
| 20260504020710 | 54 | 356 | 12.0 | 25.0 | 0.00 | 0.00 | 0.00 | 48 | 1008.8 |
| 20260504020030 | 54 | 356 | 13.0 | 25.0 | 0.00 | 0.00 | 0.00 | 48 | 1008.8 |
| 20260504015351 | 54 | 355 | 14.0 | 23.0 | 0.00 | 0.00 | 0.00 | 46 | 1008.8 |
| 20260504014712 | 0 | 354 | 15.0 | 13.0 | 0.00 | 0.00 | 0.00 | ||
| 20260504013922 | 54 | 357 | 13.0 | 22.0 | 0.00 | 0.00 | 0.00 | 47 | 1008.7 |
| 20260504013242 | 53 | 354 | 12.0 | 22.0 | 0.00 | 0.00 | 0.00 | 49 | 1008.8 |
| 20260504012603 | 0 | 355 | 12.0 | 15.0 | 0.00 | 0.00 | 0.00 | ||
| 20260504011815 | 0 | 354 | 14.0 | 13.0 | 0.00 | 0.00 | 0.00 |